Find Starlink 30812

NORAD ID: 58168 Int'l Des: 2023-166 Owner: SPXS Country: US Constellation: starlink operational
LEOCIRCULAR

Live Position

Loading 3D Globe...

About Starlink 30812

Description loading...

Upcoming Passes

Passes for default location (London). Set your location on the main map for personalized predictions.

Altitude History

Loading altitude history...

Two-Line Element Set

1 58168U 23166U 26124.27824402 -.00001065 00000-0 -23853-4 0 9999
2 58168 53.1617 321.1662 0001046 85.6893 274.4227 15.30196841141545
Epoch: May 4, 2026 • Age: 13 hours

Current Status

Altitude 479.9 km
Velocity 7.63 km/s
Sub-Earth Point -16.11°S, 13.06°W
Launch Date Oct 29, 2023
Age 2.5 years
Type internet

Technical Details

Classification Payload
Mass 730.00 kg
Dry Mass 700.00 kg
Total Mass 730.00 kg
Length 0.30 m
Diameter 4.10 m
Span 29.00 m
Shape Box + pan
Manufacturer SPXS
Bus Type Starlink V2M
Phase Status In Orbit
Owner/State SPXS/US

Most Searched